Location: Julian California
(33.0790°N, 116.6010°W)
Time: 13:20:56
(UTC-07:00)

Cosmos 1697 Rocket - Pass Details

Date: 29 March 2019
Orbit: 834 x 842 km, 71.0° (Epoch: 19 April)

Event Time Altitude Azimuth Distance (km) Brightness Sun altitude
Rises 19:55:14 0° 252° (WSW) 3,385 7.0 -11.3°
Reaches altitude 10° 19:59:17 10° 280° (W) 2,454 6.7 -12.2°
Maximum altitude 20:01:38 13° 305° (NW) 2,273 6.1 -12.6°
Drops below altitude 10° 20:04:00 10° 330° (NNW) 2,456 5.7 -13.1°
Sets 20:08:06 0° 359° (N) 3,393 6.0 -14.0°
